Regional Weather Roundup
Issued by NWS

Home | Current Version | Previous Version | Text Only | Print | Product List | Glossary On
Versions: 1 2 3 4 5 6 7 8 9 10 11 12 13 14 15 16 17 18 19 20 21 22 23 24 25 26 27 28 29 30 31 32 33 34 35 36 37 38 39 40 41 42 43 44 45 46 47 48 49 50
000
ASUS43 KLMK 252310
RWRKY
KENTUCKY REGIONAL WEATHER ROUNDUP
NATIONAL WEATHER SERVICE LOUISVILLE KY
700 PM EDT FRI JUL 25 2014

NOTE "FAIR" INDICATES FEW OR NO CLOUDS BELOW 12,000 FEET
WITH NO SIGNIFICANT WEATHER AND/OR OBSTRUCTIONS TO VISIBILITY.

KYZ001>023-026-027-061>063-070>075-260000-
WESTERN AND SOUTH CENTRAL KENTUCKY

CITY           SKY/WX    TMP DP  RH WIND       PRES   REMARKS
PADUCAH        PTSUNNY   79  63  57 SE7       29.96F
HENDERSON      CLOUDY    73  59  60 S8        29.90F
OWENSBORO      CLOUDY    76  58  53 S6        29.93F
HOPKINSVILLE   PTSUNNY   81  57  44 NE2       29.98F
BOWLING GREEN  CLOUDY    81  53  37 NW6       30.00F
GLASGOW        CLOUDY    83  55  38 S5        30.00F
$$

KYZ024-025-028>034-038-045-046-053-260000-
NORTH CENTRAL KENTUCKY

CITY           SKY/WX    TMP DP  RH WIND       PRES   REMARKS
LOUISVILLE/SDF CLOUDY    80  56  43 S10       29.94F
LOUISVILLE/LOU CLOUDY    80  56  43 S7        29.95F
FORT KNOX      CLOUDY    78  59  51 S7        29.95F
$$

KYZ035>037-039>044-047>052-055>060-089>105-260000-
NORTHEAST KENTUCKY

CITY           SKY/WX    TMP DP  RH WIND       PRES   REMARKS
LEXINGTON      PTSUNNY   79  59  50 SW9       30.01F
COVINGTON      CLOUDY    75  58  55 CALM      30.01F
FRANKFORT      CLOUDY    77  56  48 SW6       29.99F
$$

KYZ054-064>069-076>088-106>120-260000-
SOUTHEAST KENTUCKY

CITY           SKY/WX    TMP DP  RH WIND       PRES   REMARKS
JACKSON        SUNNY     75  59  57 CALM      30.06S
LONDON         MOSUNNY   77  56  48 SW5       30.06R
SOMERSET       PTSUNNY   77  57  50 CALM      30.05F
MIDDLESBORO    MOSUNNY   77  63  63 N5        30.05S
MONTICELLO     MOCLDY    78  65  64 CALM      30.06S
$$



USA.gov is the U.S. government's official web portal to all federal, state and local government web resources and services.